Overview Statistics Trail Chart Weather Telemetry Raw packets
 

This is the latest recevied weather packets stored in our database for station/object VE6HFD-WX. If no packets are shown the sender has not sent any weather packets the latest 10 day(s).

<< 20 21 22 23 24 25 26 >>
Time Temp. Humidity Pressure Rain* Wind** Luminosity Snow
1777904157 4.44° C 67% 1014.7 hPa 0 mm - - -
1777903827 3.89° C 68% 1014.7 hPa 0 mm - - -
1777903527 3.89° C 69% 1014.6 hPa 0 mm - - -
1777903227 3.33° C 69% 1014.5 hPa 0 mm - - -
1777902897 3.33° C 70% 1014.5 hPa 0 mm - - -
1777902597 2.78° C 71% 1014.6 hPa 0 mm - - -
1777902267 2.78° C 71% 1014.5 hPa 0 mm - - -
1777901937 2.78° C 71% 1014.5 hPa 0 mm - - -
1777901637 2.78° C 72% 1014.5 hPa 0 mm - - -
1777901307 2.22° C 71% 1014.5 hPa 0 mm - - -
1777900977 2.22° C 72% 1014.4 hPa 0 mm - - -
1777900647 2.22° C 73% 1014.4 hPa 0 mm - - -
1777900317 2.22° C 73% 1014.4 hPa 0 mm - - -
1777900017 1.67° C 76% 1014.4 hPa 0 mm - - -
1777899717 1.67° C 76% 1014.2 hPa 0 mm - - -
1777899387 1.67° C 77% 1014.3 hPa 0 mm - - -
1777899057 1.11° C 78% 1014.2 hPa 0 mm - - -
1777898727 0.56° C 78% 1014.2 hPa 0 mm - - -
1777898427 0.56° C 79% 1014.3 hPa 0 mm - - -
1777898097 0° C 80% 1014.3 hPa 0 mm - - -
1777897797 -0.56° C 81% 1014.2 hPa 0 mm - - -
1777897497 -0.56° C 82% 1014.2 hPa 0 mm - - -
1777897197 -1.11° C 82% 1014.2 hPa 0 mm - - -
1777896867 -1.11° C 82% 1014.2 hPa 0 mm - - -
1777896567 -1.11° C 82% 1014.1 hPa 0 mm - - -

* Rain latest hour (hover to see other rain measurements)
** Current wind speed in m/s (hover to see current wind gust speed)